EW1325 Weather Reports


time (UTC)temp
C
wind
direction
speed
KPH
gust
KPH
rain 1hr
cm
rain 24hr
cm
rain mn
cm
humidity
%
barometer
mb
20260502152059 13 143 0.0 0.0 0.00 0.03 0.03 73 1010.2
20260502151608 13 160 0.0 0.0 0.00 0.03 0.03 73 1010.2
20260502151059 13 158 0.0 0.0 0.00 0.03 0.03 73 1010.2
20260502150554 13 149 0.0 0.0 0.00 0.03 0.03 74 1010.2
20260502130536 10 89 0.0 0.0 0.00 0.03 0.03 85 1010.4
20260502123536 10 8 0.0 0.0 0.00 0.03 0.03 92 1010.5
20260502123036 10 333 0.0 0.0 0.00 0.03 0.03 93 1010.7
20260502122535 10 111 0.0 0.0 0.00 0.03 0.03 93 1010.6
20260502122035 10 332 0.0 0.0 0.00 0.03 0.03 94 1010.7
20260502121535 9 97 0.0 0.0 0.00 0.03 0.03 94 1010.9
20260502121037 9 97 0.0 0.0 0.00 0.03 0.03 94 1011.0
20260502120533 9 97 0.0 0.0 0.00 0.03 0.03 95 1011.0
20260502115537 8 89 0.0 0.0 0.00 0.03 0.03 95 1011.0
20260502115034 8 157 0.0 0.0 0.00 0.03 0.03 95 1011.1
20260502114533 8 157 0.0 0.0 0.00 0.03 0.03 95 1011.1
20260502114034 8 157 0.0 0.0 0.00 0.03 0.03 94 1011.2
20260502113535 8 157 0.0 0.0 0.00 0.03 0.03 94 1011.2
20260502113033 8 156 0.0 0.0 0.00 0.03 0.03 94 1011.2
20260502112532 8 157 0.0 0.0 0.00 0.03 0.03 95 1011.1
20260502112033 8 156 0.0 0.0 0.00 0.03 0.03 94 1011.0
20260502111532 8 156 0.0 0.0 0.00 0.03 0.03 94 1010.9
20260502111032 8 156 0.0 0.0 0.00 0.03 0.03 94 1011.3
20260502110530 8 156 0.0 0.0 0.00 0.03 0.03 94 1011.3
20260502110030 8 157 0.0 0.0 0.00 0.03 0.03 94 1010.9
20260502105532 8 157 0.0 0.0 0.00 0.03 0.03 94 1010.9
20260502105031 8 157 0.0 0.0 0.00 0.03 0.03 94 1010.9
20260502104539 8 156 0.0 0.0 0.00 0.03 0.03 94 1011.1
20260502104029 8 157 0.0 0.0 0.00 0.03 0.03 94 1011.1
20260502103528 8 157 0.0 0.0 0.03 0.03 0.03 94 1011.2
20260502103027 8 156 0.0 0.0 0.03 0.03 0.03 94 1010.8
20260502102526 8 157 0.0 0.0 0.03 0.03 0.03 93 1010.5
20260502102026 8 156 0.0 0.0 0.03 0.03 0.03 93 1010.5
20260502101525 8 156 0.0 0.0 0.03 0.03 0.03 93 1010.3
20260502101025 8 156 0.0 0.0 0.03 0.03 0.03 93 1010.5
20260502100524 8 156 0.0 0.0 0.03 0.03 0.03 93 1010.6
20260502091521 8 158 0.0 0.0 0.00 0.00 0.00 89 1010.3
20260502091019 8 158 0.0 0.0 0.00 0.00 0.00 89 1010.3
20260502090519 8 157 0.0 0.0 0.00 0.00 0.00 88 1010.1
20260502071510 9 134 0.0 0.0 0.00 0.00 0.00 82 1010.2
20260502071009 10 82 0.0 0.0 0.00 0.00 0.00 82 1009.9
20260502070508 10 82 0.0 0.0 0.00 0.00 0.00 81 1009.7
20260502070013 10 115 0.0 0.0 0.00 0.00 0.00 81 1009.8
20260502065507 10 146 0.0 0.0 0.00 0.00 0.00 80 1010.2
20260502065010 10 150 0.0 0.0 0.00 0.00 0.00 80 1010.2
20260502064515 10 142 0.0 0.0 0.00 0.00 0.00 79 1010.2
20260502064005 10 146 0.0 0.0 0.00 0.00 0.00 79 1010.2
20260502063507 10 145 0.0 0.0 0.00 0.00 0.00 79 1010.3
20260502063009 10 146 0.0 0.0 0.00 0.00 0.00 79 1010.3
20260502062505 10 162 0.0 0.0 0.00 0.00 0.00 79 1010.3
20260502062009 10 205 0.0 0.0 0.00 0.00 0.00 79 1010.1
20260502061504 10 204 0.0 0.0 0.00 0.00 0.00 79 1010.2
20260502061003 10 204 0.0 0.0 0.00 0.00 0.00 78 1010.3
20260502060502 10 230 0.0 0.0 0.00 0.00 0.00 78 1010.5
20260502060002 10 146 0.0 0.0 0.00 0.00 0.00 78 1010.5
20260502055502 10 146 0.0 0.0 0.00 0.00 0.00 78 1010.5
20260502055002 10 146 0.0 0.0 0.00 0.00 0.00 77 1010.3
20260502054604 10 153 0.0 0.0 0.00 0.00 0.00 77 1010.1
20260502054100 10 127 0.0 0.0 0.00 0.00 0.00 77 1010.2
20260502053602 10 191 0.0 0.0 0.00 0.00 0.00 76 1010.3
20260502053107 10 164 0.0 0.0 0.00 0.00 0.00 76 1010.3
20260502053002 10 146 0.0 0.0 0.00 0.00 0.00 76 1010.3
20260502052559 10 129 0.0 0.0 0.00 0.00 0.00 76 1010.2
20260502052102 10 130 0.0 0.0 0.00 0.00 0.00 76 1010.4
20260502051603 10 174 0.0 0.0 0.00 0.00 0.00 75 1010.4
20260502051057 10 174 0.0 0.0 0.00 0.00 0.00 75 1010.2
20260502050558 10 167 0.0 0.0 0.00 0.00 0.00 75 1010.3
20260502050101 10 120 0.0 0.0 0.00 0.00 0.00 74 1010.3
20260502045555 10 125 0.0 0.0 0.00 0.00 0.00 74 1010.4
20260502045057 11 143 0.0 0.0 0.00 0.00 0.00 74 1010.5
20260502044556 11 143 0.0 0.0 0.00 0.00 0.00 74 1010.5
20260502044053 11 208 0.0 0.0 0.00 0.00 0.00 73 1010.5
20260502043553 11 163 0.0 0.0 0.00 0.00 0.00 73 1010.5
20260502043054 11 171 0.0 0.0 0.00 0.00 0.00 73 1010.5
20260502042552 11 153 0.0 0.0 0.00 0.00 0.00 73 1010.5
20260502042051 11 158 0.0 0.0 0.00 0.00 0.00 73 1010.4
20260502041551 11 153 0.0 0.0 0.00 0.00 0.00 73 1010.4
20260502041054 11 128 0.0 0.0 0.00 0.00 0.00 73 1010.5
20260502040550 11 222 0.0 0.0 0.00 0.00 0.00 73 1010.5
20260502040050 11 187 0.0 0.0 0.00 0.00 0.00 72 1010.5
20260502035548 11 150 0.0 0.0 0.00 0.00 0.00 72 1010.4
20260502035049 11 148 0.0 0.0 0.00 0.00 0.00 72 1010.4
20260502034549 11 166 0.0 0.0 0.00 0.00 0.00 72 1010.5
20260502034049 11 148 0.0 0.0 0.00 0.00 0.00 72 1010.5
20260502033548 11 136 0.0 0.0 0.00 0.00 0.00 72 1010.6
20260502033053 11 165 0.0 0.0 0.00 0.00 0.00 72 1010.5
20260502032548 11 205 0.0 0.0 0.00 0.00 0.00 72 1010.5
20260502032048 11 187 0.0 0.0 0.00 0.00 0.00 72 1010.5
20260502031548 11 159 0.0 0.0 0.00 0.00 0.00 73 1010.6
20260502031048 11 213 0.0 0.0 0.00 0.00 0.00 73 1010.6
20260502030547 11 153 0.0 0.0 0.00 0.00 0.00 72 1010.5
20260502030047 11 153 0.0 0.0 0.00 0.00 0.00 72 1010.5
20260502025548 11 167 0.0 0.0 0.00 0.00 0.00 72 1010.6
20260502025047 11 167 0.0 0.0 0.00 0.00 0.00 71 1010.6
20260502024547 11 161 0.0 0.0 0.00 0.00 0.00 71 1010.6
20260502024047 11 162 0.0 0.0 0.00 0.00 0.00 70 1010.7
20260502023547 11 172 0.0 0.0 0.00 0.00 0.00 70 1010.6
20260502023047 11 238 0.0 0.0 0.00 0.00 0.00 69 1010.5
20260502022549 11 152 0.0 0.0 0.00 0.00 0.00 69 1010.5
20260502022046 11 152 0.0 0.0 0.00 0.00 0.00 68 1010.5
20260502021546 12 156 0.0 0.0 0.00 0.00 0.00 68 1010.5
20260502021050 12 146 0.0 0.0 0.00 0.00 0.00 68 1010.5
20260502020545 12 139 0.0 0.0 0.00 0.00 0.00 68 1010.5
20260502020045 12 187 0.0 0.0 0.00 0.00 0.00 68 1010.6
20260502015547 12 156 0.0 0.0 0.00 0.00 0.00 68 1010.6
20260502015044 12 152 0.0 0.0 0.00 0.00 0.00 67 1010.5
20260502014545 12 134 0.0 0.0 0.00 0.00 0.00 67 1010.5
20260502014044 12 215 0.0 0.0 0.00 0.00 0.00 66 1010.4
20260502013544 12 193 0.0 0.0 0.00 0.00 0.00 66 1010.4
20260502013054 12 158 0.0 0.0 0.00 0.00 0.00 66 1010.3
20260502012544 12 136 0.0 0.0 0.00 0.00 0.00 65 1010.3
20260502012044 12 205 0.0 0.0 0.00 0.00 0.00 65 1010.2
20260502011603 12 232 0.0 0.0 0.00 0.00 0.00 65 1010.2
20260502011043 12 167 0.0 0.0 0.00 0.00 0.00 64 1010.1
20260502010542 12 205 0.0 0.0 0.00 0.00 0.00 64 1010.1
20260502010046 12 205 0.0 0.0 0.00 0.00 0.00 63 1010.0
20260502005542 12 184 0.0 0.0 0.00 0.00 0.00 62 1010.0
20260502005043 12 141 0.0 0.0 0.00 0.00 0.00 61 1009.9
20260502004556 13 155 0.0 0.0 0.00 0.00 0.00 59 1009.9
20260502004041 13 221 0.0 0.0 0.00 0.00 0.00 57 1009.8
20260502003540 13 172 0.0 0.0 0.00 0.00 0.00 56 1009.7
20260502003040 13 142 0.0 0.0 0.00 0.00 0.00 54 1009.7
20260502002542 13 163 0.0 0.0 0.00 0.00 0.00 53 1009.5
20260502002042 13 203 0.0 0.0 0.00 0.00 0.00 50 1009.5
20260502001539 13 231 0.0 0.0 0.00 0.00 0.00 48 1009.4
20260502001038 13 165 0.0 0.0 0.00 0.00 0.00 48 1009.2
20260502000538 13 201 0.0 0.0 0.00 0.00 0.00 47 1009.2
20260502000045 13 146 0.0 0.0 0.00 0.00 0.00 47 1009.1
20260501235537 14 145 0.0 0.0 0.00 0.00 0.00 46 1009.0
20260501235041 14 203 0.0 0.0 0.00 0.00 0.00 45 1008.9
20260501234540 15 211 0.0 0.0 0.00 0.00 0.00 45 1008.8
20260501234036 15 209 0.0 0.0 0.00 0.00 0.00 45 1008.8
20260501233536 15 179 0.0 0.0 0.00 0.00 0.00 44 1008.8
20260501233039 15 139 0.0 0.0 0.00 0.00 0.00 44 1008.7
20260501232535 15 143 0.0 0.0 0.00 0.00 0.00 43 1008.6
20260501232036 15 214 0.0 0.0 0.00 0.00 0.00 43 1008.5
20260501231547 15 138 0.0 0.0 0.00 0.00 0.00 42 1008.4
20260501231034 16 287 0.0 0.0 0.00 0.00 0.00 42 1008.4
20260501230534 16 285 0.0 0.0 0.00 0.00 0.00 40 1008.4
20260501230035 16 105 0.0 0.0 0.00 0.00 0.00 40 1008.3
20260501225536 16 105 0.0 0.0 0.00 0.00 0.00 38 1008.3
20260501225035 16 242 0.0 0.0 0.00 0.00 0.00 39 1008.3
20260501224532 16 47 0.0 0.0 0.00 0.00 0.00 38 1008.3
20260501224031 16 25 0.0 0.0 0.00 0.00 0.00 38 1008.3
20260501223534 17 295 0.0 0.0 0.00 0.00 0.00 38 1008.2
20260501223031 17 252 0.0 0.0 0.00 0.00 0.00 36 1008.2
20260501222531 17 268 0.0 0.0 0.00 0.00 0.00 38 1008.1
20260501222031 17 41 0.0 0.0 0.00 0.00 0.00 36 1008.2
20260501221531 18 20 0.0 0.0 0.00 0.00 0.00 35 1008.2
20260501221030 18 273 0.0 0.0 0.00 0.00 0.00 36 1008.2
20260501220528 18 265 0.0 0.0 0.00 0.00 0.00 35 1008.2
20260501220039 17 149 0.0 0.0 0.00 0.00 0.00 36 1008.2
20260501215528 17 25 0.0 0.0 0.00 0.00 0.00 35 1008.3
20260501215027 17 85 0.0 0.0 0.00 0.00 0.00 36 1008.2
20260501214530 18 356 0.0 0.0 0.00 0.00 0.00 34 1008.3
20260501214031 18 8 0.0 0.0 0.00 0.00 0.00 34 1008.3
20260501213527 18 54 0.0 0.0 0.00 0.00 0.00 35 1008.3
20260501213032 17 342 0.0 0.0 0.00 0.00 0.00 34 1008.2
20260501212529 17 128 0.0 0.0 0.00 0.00 0.00 35 1008.3
20260501212027 17 359 0.0 0.0 0.00 0.00 0.00 34 1008.4
20260501211527 18 265 0.0 0.0 0.00 0.00 0.00 37 1008.2
20260501211026 17 11 0.0 0.0 0.00 0.00 0.00 35 1008.2
20260501210526 17 12 0.0 0.0 0.00 0.00 0.00 36 1008.2
20260501210025 17 91 0.0 0.0 0.00 0.00 0.00 36 1008.2
20260501205525 18 276 0.0 0.0 0.00 0.00 0.00 35 1008.2
20260501205025 18 204 0.0 0.0 0.00 0.00 0.00 36 1008.2
20260501204525 18 17 0.0 0.0 0.00 0.00 0.00 35 1008.0
20260501204024 18 236 0.0 0.0 0.00 0.00 0.00 36 1008.1
20260501203524 18 162 0.0 0.0 0.00 0.00 0.00 35 1008.1
20260501203024 18 256 0.0 0.0 0.00 0.00 0.00 36 1008.2
20260501202523 18 145 0.0 0.0 0.00 0.00 0.00 37 1008.2
20260501202023 17 323 0.0 0.0 0.00 0.00 0.00 35 1008.2
20260501201523 17 212 0.0 0.0 0.00 0.00 0.00 37 1008.3
20260501201022 17 190 0.0 0.0 0.00 0.00 0.00 37 1008.2
20260501200527 17 301 0.0 0.0 0.00 0.00 0.00 35 1008.3
20260501200022 18 6 0.0 0.0 0.00 0.00 0.00 35 1008.4
20260501195522 18 259 0.0 0.0 0.00 0.00 0.00 37 1008.4
20260501195021 17 207 0.0 0.0 0.00 0.00 0.00 41 1008.4
20260501194521 17 155 0.0 0.0 0.00 0.00 0.00 37 1008.3
20260501194020 17 324 0.0 0.0 0.00 0.00 0.00 37 1008.3
20260501193520 17 349 0.0 0.0 0.00 0.00 0.00 36 1008.3
20260501193032 17 208 0.0 0.0 0.00 0.00 0.00 39 1008.4
20260501192518 17 23 0.0 0.0 0.00 0.00 0.00 37 1008.4
20260501192018 17 246 0.0 0.0 0.00 0.00 0.00 37 1008.4
20260501191528 17 256 0.0 0.0 0.00 0.00 0.00 37 1008.5
20260501191017 17 29 0.0 0.0 0.00 0.00 0.00 36 1008.6
20260501190516 17 194 0.0 0.0 0.00 0.00 0.00 37 1008.9
20260501190042 17 249 0.0 0.0 0.00 0.00 0.00 38 1008.9
20260501185515 17 56 0.0 0.0 0.00 0.00 0.00 39 1009.0
20260501185015 17 283 0.0 1.6 0.00 0.00 0.00 37 1009.0
20260501184527 17 25 0.0 1.6 0.00 0.00 0.00 37 1009.1
20260501184015 17 354 0.0 0.0 0.00 0.00 0.00 37 1009.0
20260501183514 17 150 0.0 0.0 0.00 0.00 0.00 37 1009.0
20260501183019 16 182 0.0 0.0 0.00 0.00 0.00 38 1009.1
20260501182513 16 101 0.0 0.0 0.00 0.00 0.00 37 1008.9
20260501182013 16 32 0.0 0.0 0.00 0.00 0.00 36 1009.1
20260501181513 16 20 0.0 0.0 0.00 0.00 0.00 39 1009.0
20260501181013 16 224 0.0 0.0 0.00 0.00 0.00 41 1009.1
20260501180516 16 261 0.0 0.0 0.00 0.00 0.00 39 1009.2
20260501180012 16 222 0.0 1.6 0.00 0.00 0.00 37 1009.2
20260501175512 16 335 0.0 1.6 0.00 0.00 0.00 35 1009.2
20260501175011 17 231 0.0 0.0 0.00 0.00 0.00 37 1009.2
20260501174515 17 26 0.0 0.0 0.00 0.00 0.00 37 1009.2
20260501174013 16 169 0.0 0.0 0.00 0.00 0.00 36 1009.2
20260501173510 17 297 0.0 0.0 0.00 0.00 0.00 36 1009.3
20260501173010 16 232 0.0 0.0 0.00 0.00 0.00 36 1009.3
20260501172510 17 290 0.0 0.0 0.00 0.00 0.00 38 1009.3
20260501172009 16 274 0.0 0.0 0.00 0.00 0.00 38 1009.3
20260501171508 16 9 0.0 0.0 0.00 0.00 0.00 41 1009.5
20260501171007 16 335 0.0 0.0 0.00 0.00 0.00 39 1009.5
20260501170509 16 220 0.0 0.0 0.00 0.00 0.00 40 1009.5
20260501170006 16 12 0.0 0.0 0.00 0.00 0.00 40 1009.4
20260501165505 16 37 0.0 0.0 0.00 0.03 0.00 42 1009.4
20260501165004 16 229 0.0 0.0 0.00 0.03 0.00 40 1009.4
20260501164504 15 359 0.0 0.0 0.00 0.03 0.00 44 1009.6
20260501164002 15 60 0.0 0.0 0.00 0.03 0.00 43 1009.7
20260501163505 15 257 0.0 0.0 0.00 0.03 0.00 42 1009.7
20260501163002 15 257 0.0 0.0 0.00 0.03 0.00 44 1009.7
20260501162601 15 162 0.0 0.0 0.00 0.03 0.00 46 1009.7
20260501162102 15 153 0.0 0.0 0.00 0.03 0.00 45 1009.7
20260501161612 15 345 0.0 0.0 0.00 0.03 0.00 45 1009.8
20260501161058 14 112 0.0 1.6 0.00 0.03 0.00 48 1009.9
20260501160557 14 334 0.0 1.6 0.00 0.03 0.00 42 1010.0
20260501160113 14 273 0.0 0.0 0.00 0.03 0.00 47 1010.0
20260501155555 13 271 0.0 0.0 0.00 0.03 0.00 50 1010.1